Location: Unspecified
(48.2082°N, 0.0000°E)
Time: 20:50:04
(UTC+00:00)

Transit 4A - Pass Details

Date: 19 June 2019
Orbit: 862 x 982 km, 66.8° (Epoch: 17 July)

Event Time Altitude Azimuth Distance (km) Brightness Sun altitude
Rises 08:31:48 0° 196° (SSW) 3,603 10.9 42.0°
Reaches altitude 10° 08:34:21 10° 192° (SSW) 2,677 10.4 42.5°
Maximum altitude 08:40:26 55° 117° (ESE) 1,160 10.5 43.4°
Drops below altitude 10° 08:46:40 10° 41° (NE) 2,742 10.8 44.4°
Sets 08:49:18 0° 38° (NE) 3,697 11.2 44.9°
